User: anonymous   Login
Location: Debolt
(55.2626°N, 118.0981°W)
Time: 13:20:06
(UTC+00:00)
Language:

Max Valier Satellite - Orbit

View from above orbital plane
View from above orbital plane
View from above satellite
View from above satellite

Ground track
Ground track

The orbit data is extracted from the following two-line orbital elements,

1 42778U 17036P   24109.08714454  .00157049  00000-0  14293-2 0  9991
2 42778  97.1097 145.7823 0005715  92.9470 267.2446 15.67427604380107
Epoch (UTC): 18 April 2024 02:05:29
Eccentricity: 0.0005715
inclination: 97.1097°
perigee height: 362 km
apogee height: 370 km
right ascension of ascending node: 145.7823°
argument of perigee: 92.9470°
revolutions per day: 15.67427604
mean anomaly at epoch: 267.2446°
orbit number at epoch: 38010

The dashed part of the orbit path shows where the satellite is in the earth's shadow,  

DLR